Showing default

LEMUR 2 MYNAMEISJEFF, 62712

Orbit data source: Space-Track

LEMUR 2 MYNAMEISJEFF, 62712 is a payload satellite owned by Spire (US) in SSO that was launched on Tue, 14 Jan 2025 UTC via an FALCON 9 launch vehicle from the Air Force Western Test Range (AFWTR). Payload-class satellites include a variety of spacecraft equipped with specific instruments for various scientific and technological missions. These include communications satellites like Starlink; space stations such as the ISS; scientific satellites like the Hubble; Earth observation satellites from companies like Planet Labs, Umbra, and HawkEye 360; GPS; miniature CubeSats for education and research; and military/defense satellites.

Loading next visibility...
Identifier
62712, 2025-009DH
Orbit
SSO
Country
Flag of USUS
Related business
Manufacturer
Spire/Glasgow
Mission
Operational Commercial Com/MetRO
Bus & Motor
CUBESAT 3U, Unknown motor
Mass
7.6 kg wet, 7.6 kg dry
Launch date (UTC)
2025-01-14 (2 years ago)
Launch vehicle
FALCON 9
Launch site
Air Force Western Test Range (AFWTR)
Object type
Payload
Rocket body
Debris
Shape & HBR
Box + 2 Pan, 0.2 m
Radar Cross Section
0.063 m², Medium (>0.1 m² and < 1m²)

Expand to show TLE details & history
Last TLE update: 9 hours ago

TLE from 9 hours ago
0 LEMUR 2 MYNAMEISJEFF
1 62712U 25009DH  26238.46751249  .00006433  00000-0  46043-3 0  9999
2 62712  97.7256 321.5059 0001303 326.6999  33.4144 15.04768591 88193
Epoch: 2026-08-26T11:13Z
TLE epoch observation values (Epoch: 2026-08-26T11:13:13.079Z)
Latitude
-0.00008°
Longitude
178.48133°
Altitude
554.523 km
Speed
7.585 km/s
True Right ascension
21h 26m 01s
True Declination
0° 00' 00"
Sunlit
Object was in full shadow at epoch
Visualization orbit readout
Latitude
Unknown
Longitude
Unknown
Altitude
Unknown
Speed
Unknown
Apparent Right ascension
Unknown
Apparent Declination
Unknown
Sunlit
N/A
Visualization observer readout
Local Sidereal Time
11:20:37
Azimuth
Unknown
Elevation
Unknown
Doppler factor
Unknown
Orbital elements
Apogee altitude
550.119 km
Perigee altitude
548.314 km
Semi-major axis
6,927.353 km
Eccentricity
0.00013
Inclination
97.7256°
RAAN
321.5059°
Arg. of periapsis
326.6999°
True anomaly
33.42262°
Mean anomaly
33.4144°
Eccentric anomaly
33.41851°
Mean motion
3.76437 °/min
Orbital period
95.63 mins
BSTAR
0.00046043
Loading maneuver chart data...
Computing Atmospheric mass density...
Loading historical data...
Loading historical data...
Loading historical data...
Loading historical data...
Loading historical data...
Loading historical data...
Loading historical data...

Documentation

Showing up to 5 results
|